FW0539 Weather Reports


Display with metric or nautical units.
time (UTC)temp
F
wind
direction
speed
MPH
gust
MPH
rain 1hr
in
rain 24hr
in
rain mn
in
humidity
%
barometer
mb
20260507230029 63 261 5.0 9.0 0.00 0.00 0.00 65 1001.2
20260507224600 62 258 5.0 10.0 0.00 0.00 0.00 66 1001.3
20260507223058 63 250 5.0 10.0 0.00 0.00 0.00 65 1001.3
20260507221524 62 227 4.0 9.0 0.00 0.00 0.00 66 1001.4
20260507220022 62 251 5.0 8.0 0.00 0.00 0.00 68 1001.5
20260507214524 61 223 3.0 8.0 0.00 0.00 0.00 67 1001.7
20260507213019 61 205 4.0 7.0 0.00 0.00 0.00 68 1001.8
20260507211516 61 218 5.0 10.0 0.00 0.00 0.00 69 1002.1
20260507210013 60 193 4.0 11.0 0.00 0.00 0.00 71 1002.2
20260507204509 60 232 5.0 10.0 0.00 0.00 0.00 70 1002.3
20260507203010 59 202 4.0 9.0 0.00 0.00 0.00 72 1002.5
20260507201504 59 213 3.0 9.0 0.00 0.00 0.00 73 1002.5
20260507200001 58 103 2.0 8.0 0.00 0.00 0.00 73 1002.5
20260507194532 58 224 4.0 8.0 0.00 0.00 0.00 72 1002.6
20260507193029 57 176 5.0 9.0 0.00 0.00 0.00 75 1002.9
20260507191524 57 264 3.0 7.0 0.00 0.00 0.00 77 1003.0
20260507190021 55 207 3.0 6.0 0.00 0.00 0.00 79 1003.0
20260507184518 54 261 3.0 6.0 0.00 0.00 0.00 81 1003.1
20260507183016 53 273 4.0 8.0 0.00 0.00 0.00 83 1003.2
20260507181506 52 237 3.0 7.0 0.00 0.00 0.00 84 1003.3
20260507180005 51 267 4.0 9.0 0.00 0.00 0.00 86 1003.4
20260507174504 51 19 5.0 10.0 0.00 0.00 0.00 87 1003.4
20260507173002 52 201 3.0 6.0 0.00 0.00 0.00 86 1003.4
20260507171606 52 250 3.0 6.0 0.00 0.00 0.00 87 1003.3
20260507170056 51 189 2.0 7.0 0.00 0.00 0.00 87 1003.3
20260507164554 51 172 2.0 6.0 0.00 0.00 0.00 90 1003.3
20260507163051 50 196 1.0 5.0 0.00 0.00 0.00 91 1003.3
20260507161552 50 198 2.0 6.0 0.00 0.00 0.00 92 1003.2
20260507160054 50 213 1.0 3.0 0.00 0.00 0.00 94 1003.4
20260507154550 49 246 0.0 3.0 0.00 0.00 0.00 96 1003.3
20260507153050 48 16 1.0 3.0 0.00 0.00 0.00 96 1003.4
20260507151557 48 5 2.0 4.0 0.00 0.00 0.00 96 1003.4
20260507150058 47 11 2.0 4.0 0.00 0.00 0.00 96 1003.4
20260507144615 47 19 2.0 4.0 0.00 0.00 0.00 96 1003.2
20260507143056 47 32 2.0 4.0 0.00 0.00 0.00 96 1003.3
20260507141524 47 54 3.0 5.0 0.00 0.00 0.00 96 1003.2
20260507140024 47 22 3.0 5.0 0.00 0.00 0.00 96 1002.9
20260507134520 47 35 4.0 6.0 0.00 0.00 0.00 96 1002.8
20260507133020 47 24 3.0 6.0 0.00 0.00 0.00 96 1002.8
20260507131518 47 15 3.0 5.0 0.00 0.00 0.00 95 1002.8
20260507130018 47 38 4.0 8.0 0.00 0.00 0.00 95 1003.0
20260507124515 47 54 3.0 7.0 0.00 0.00 0.00 95 1002.9
20260507123014 47 17 3.0 8.0 0.00 0.00 0.00 95 1003.0
20260507121512 47 18 5.0 8.0 0.00 0.00 0.00 95 1003.1
20260507120010 47 16 4.0 10.0 0.00 0.00 0.00 95 1003.2
20260507114507 47 15 6.0 9.0 0.00 0.00 0.00 95 1003.3
20260507113010 47 15 5.0 8.0 0.00 0.00 0.00 95 1003.4
20260507111501 47 360 7.0 10.0 0.00 0.00 0.00 94 1003.5
20260507110059 48 14 4.0 8.0 0.00 0.00 0.00 94 1003.5
20260507104557 48 15 4.0 9.0 0.00 0.00 0.00 95 1003.5
20260507103052 48 12 4.0 8.0 0.00 0.00 0.00 95 1003.8
20260507101553 48 360 4.0 6.0 0.00 0.00 0.00 95 1003.8
20260507100050 48 286 4.0 8.0 0.00 0.00 0.00 94 1003.8
20260507094549 48 17 4.0 9.0 0.00 0.00 0.00 94 1003.8
20260507093046 48 5 4.0 8.0 0.00 0.00 0.00 93 1004.0
20260507091542 49 276 4.0 7.0 0.00 0.00 0.00 93 1004.1
20260507090039 49 261 3.0 8.0 0.00 0.00 0.00 93 1004.2
20260507084538 49 9 4.0 7.0 0.00 0.00 0.00 93 1004.3
20260507083033 49 9 4.0 8.0 0.00 0.00 0.00 92 1004.2
20260507081531 49 15 3.0 7.0 0.00 0.00 0.00 92 1004.2
20260507080032 50 277 2.0 4.0 0.00 0.00 0.00 92 1004.2
20260507074628 50 266 3.0 7.0 0.00 0.00 0.00 92 1004.2
20260507073026 50 278 3.0 6.0 0.00 0.00 0.00 92 1004.2
20260507071525 50 20 2.0 7.0 0.00 0.00 0.00 92 1004.1
20260507070022 50 360 4.0 9.0 0.00 0.00 0.00 91 1004.1
20260507064523 50 14 4.0 7.0 0.00 0.00 0.00 91 1004.1
20260507063019 50 12 0.0 3.0 0.00 0.00 0.00 92 1004.2
20260507061519 50 12 1.0 2.0 0.00 0.00 0.00 92 1004.3
20260507060021 50 244 0.0 1.0 0.00 0.00 0.00 91 1004.2
20260507054517 50 244 0.0 2.0 0.00 0.00 0.00 90 1004.3
20260507053014 50 274 1.0 2.0 0.00 0.00 0.00 90 1004.4
20260507051515 50 274 0.0 1.0 0.00 0.00 0.00 89 1004.3
20260507050014 51 274 0.0 1.0 0.00 0.00 0.00 89 1004.3
20260507044530 51 16 2.0 3.0 0.00 0.00 0.00 88 1004.4
20260507043043 52 360 2.0 5.0 0.00 0.00 0.00 87 1004.3
20260507041542 53 285 2.0 4.0 0.00 0.00 0.00 86 1004.2
20260507040013 53 22 2.0 5.0 0.00 0.00 0.00 86 1004.1
20260507034511 54 9 2.0 3.0 0.00 0.00 0.00 86 1003.9
20260507033043 54 282 1.0 3.0 0.00 0.00 0.00 85 1003.7
20260507031540 55 250 2.0 4.0 0.00 0.00 0.00 83 1003.6
20260507030038 57 283 1.0 4.0 0.00 0.00 0.00 81 1003.5
20260507024541 58 261 1.0 6.0 0.00 0.00 0.00 80 1003.4
20260507023036 59 226 4.0 8.0 0.00 0.00 0.00 78 1003.5
20260507021536 60 225 2.0 7.0 0.00 0.00 0.00 77 1003.5
20260507020043 61 258 3.0 8.0 0.00 0.00 0.00 75 1003.4
20260507014535 61 360 3.0 8.0 0.00 0.00 0.00 76 1003.6
20260507013033 61 242 3.0 9.0 0.00 0.00 0.00 75 1003.5
20260507011531 63 228 4.0 9.0 0.00 0.00 0.00 73 1003.6
20260507010002 63 227 3.0 8.0 0.00 0.00 0.00 72 1003.7
20260507004501 63 257 3.0 8.0 0.00 0.00 0.00 70 1003.8
20260507003055 63 250 4.0 7.0 0.00 0.00 0.00 70 1003.7
20260507001553 63 211 3.0 10.0 0.00 0.00 0.00 73 1003.6
20260507000151 62 194 5.0 9.0 0.00 0.00 0.00 75 1003.7
20260506234555 61 205 0.0 9.0 0.00 0.00 0.00 76 1003.7
20260506233049 62 282 1.0 7.0 0.00 0.00 0.00 75 1003.8
20260506231546 62 246 3.0 10.0 0.00 0.00 0.00 75 1003.7